Matelandia, Brazil
Current Conditions -  °F | °C
As of 12:40 AM on Saturday 29 Nov 2014 (Local Time) from SBCA Reporting Station
Scattered Clouds Scattered Clouds  
Wind Chill: 70°   Ceiling: Unl
Heat Index: 70°   Visibility: 6mi
Dew Point: 59°   Wind: 7mph
Humidity: 68%   Direction: 70°ENE
Pressure: 30"   Gusts: NA
Location:  25.24°S, 54°W
Report Text: SBCA 290240Z 07006KT 9999 FEW040 SCT100 21/15 Q1016
Loading
Personal Weather Stations






























Interactive Weather Map New forecast layout! Learn more

10-Day Weather Forecast

Advertisements
Track Severe Weather on mobile